Weather in Karakhun

Russia / Irkutsk Oblast     55°35′18″N   103°09′39″E
temp.,
°C
wind,
m/s
gust,
m/s
humid.,
%
clouds,
%
prec.,
mm/h
press.,
hPa
HPBL,
m
13 may, thu
thu1323:000nne22675 0.0 101831
02:00−2n217676 0.0 101812
05:00−3n22805 0.0 101917
08:00+2n35525 0.0 1019677
11:00+6n4637100 0.0 10182339
14:00+9nne4634100 0.0 10172453
17:00+8nne454180 0.0 10181763
20:00+7nnw11495 0.0 101911
14 may, fri
fri1423:00+1w116617 0.0 102010
02:000wnw11725 0.0 102110
05:00−2ssw00770 0.0 102110
08:00+6sse00470 0.0 1020252
11:00+12s23310 0.0 10171588
14:00+14s34245 0.0 10142064
17:00+15ssw342239 0.0 10112404
20:00+12s373610 0.0 1011186
15 may, sat
sat1523:00+5sse375065 0.0 1012119
02:00+4wsw245659 0.0 101382
05:00+4w41092100 0.3 10151002
08:00+4w6126954 0.5 10171582
11:00+7w61145100 0.1 10162034
14:00+9w71140100 0.1 10142014
17:00+5wsw51588100 0.6 10141221
20:00+6w61593100 3.3 10131304
16 may, sun
sun1623:00+7wsw61587100 0.4 10111124
02:00+8w51588100 0.9 10091421
05:00+8w51394100 2.7 10081320
08:00+4nnw2796100 3.9 1012467
11:00+5wnw2690100 0.5 1013624
14:00+10wnw4854100 0.5 10121427
17:00+10w4652100 0.0 10111421
20:00+8w3664100 0.0 1011473
17 may, mon
mon1723:00+4sw2893100 0.0 1011256
02:00+3sw1197100 0.0 101149
05:00+3wsw2594100 0.0 1010169
08:00+6wsw356974 0.0 1010590
11:00+9wnw3455100 0.0 10081503
14:00+7wsw3482100 0.4 1007853
17:00+5sse2595100 2.4 1003369
20:00+7nnw3641100 0.0 1011352